{"data":{"norad_id":40967,"epoch":"2026-05-24T22:37:09.350112Z","epoch_age_seconds":79250,"freshness":"FRESH","line1":"1 40967U 15058D   26144.94246933  .00002906  00000+0  26625-3 0  9992","line2":"2 40967  64.7766 351.2143 0129423  65.7254 295.7313 14.90816319110108","mean_motion":14.90816319,"eccentricity":0.0129423,"inclination_deg":64.7766,"raan_deg":351.2143,"arg_perigee_deg":65.7254,"mean_anomaly_deg":295.7313,"bstar":0.00026625,"rev_number":11010,"period_min":96.591376257936,"perigee_km":505.13539970107,"apogee_km":685.64232726701,"semimajor_km":6973.525863484,"source":"CELESTRAK","updated_at":"2026-05-25T13:38:25.525543Z"}}